Regional Weather Roundup
Issued by NWS

Home | Current Version | Previous Version | Graphics & Text | Print | Product List | Glossary On
Versions: 1 2 3 4 5 6 7 8 9 10 11 12 13 14 15 16 17 18 19 20 21 22 23 24 25 26 27 28 29 30 31 32 33 34 35 36 37 38 39 40 41 42 43 44 45 46 47 48 49 50
000
ASUS43 KOAX 292102
RWRNE

WEATHER ROUNDUP FOR NEBRASKA
NATIONAL WEATHER SERVICE OMAHA NE
400 PM CDT SAT APR 29 2017

NOTES: SATELLITE DATA IS BEING USED TO AUGMENT CLOUD COVER ABOVE
       12000 FEET.
       "FAIR" INDICATES FEW OR NO CLOUDS BELOW 12,000 FEET WITH NO
       SIGNIFICANT WEATHER AND/OR OBSTRUCTIONS TO VISIBILITY.

  * THESE STATIONS DO NOT REPORT WEATHER SUCH AS RAIN...SNOW OR FOG.

NEZ001>004-019>022-054>056-292200-
NEBRASKA PANHANDLE

CITY           SKY/WX    TMP DP  RH WIND       PRES   REMARKS
SCOTTSBLUFF    CLOUDY    44  25  47 N16       30.20F
ALLIANCE       CLOUDY    48  22  35 NE16G29   30.15F
CHADRON        CLOUDY    51  26  37 N13G21    30.20F
KIMBALL        CLOUDY    40  22  49 N21G26    30.18R WCI  30
SIDNEY         CLOUDY    42  19  39 NE23      30.15F
$$

NEZ057>060-069>072-079>082-292200-
SOUTHWEST NEBRASKA

CITY           SKY/WX    TMP DP  RH WIND       PRES   REMARKS
NORTH PLATTE   CLOUDY    46  26  45 NE23G32   30.12F
IMPERIAL       CLOUDY    44  23  43 NE25G35   30.10F
LEXINGTON      CLOUDY    42  33  71 N25G31    30.05F
MCCOOK         CLOUDY    41  35  79 N23G31    30.05F
OGALLALA       CLOUDY    49  19  30 NE22      30.12F
$$

NEZ005>010-023>029-035>040-094-292200-
NORTH CENTRAL NEBRASKA

CITY           SKY/WX    TMP DP  RH WIND       PRES   REMARKS
VALENTINE      CLOUDY    56  12  17 NE22G31   30.15F
AINSWORTH      CLOUDY    51  24  34 NE28      30.14F
BROKEN BOW     CLOUDY    46  29  51 NE22G31   30.09F
O`NEILL        CLOUDY    52  23  31 NE21G31   30.12F
ORD            CLOUDY    46  28  49 NE22G29   30.08F
THEDFORD       PTSUNNY   51  23  33 NE22G30   30.14S
$$

NEZ041-046>049-061>064-073>077-083>087-292200-
SOUTH CENTRAL NEBRASKA

CITY           SKY/WX    TMP DP  RH WIND       PRES   REMARKS
GRAND ISLAND   CLOUDY    45  33  63 NE30G40   30.01F
AURORA         CLOUDY    44  32  64 N26G35    29.99F
HASTINGS       CLOUDY    43  34  70 N29G37    29.99F
HEBRON         LGT RAIN  42  39  89 NE22G30   29.94F
HOLDREGE       CLOUDY    43  32  65 N31G38    30.01F
KEARNEY *      CLOUDY    45  30  57 N26G35    30.01F
YORK           CLOUDY    43  36  75 NE30      29.98F
$$

NEZ011>018-030>034-042>045-292200-
NORTHEAST NEBRASKA

CITY           SKY/WX    TMP DP  RH WIND       PRES   REMARKS
NORFOLK        CLOUDY    47  28  47 N17G29    30.06F
ALBION         CLOUDY    47  30  51 NE17G25   30.07F
BLAIR          CLOUDY    45  37  72 NE18G30   29.99R
FREMONT        CLOUDY    47  35  63 NE17G29   30.01R
TEKAMAH        CLOUDY    48  36  63 NE29G36   30.04F
WAYNE          CLOUDY    49  33  54 N21G26    30.08S
$$

NEZ050>053-065>068-078-088>093-292200-
SOUTHEAST NEBRASKA

CITY           SKY/WX    TMP DP  RH WIND       PRES   REMARKS
LINCOLN        CLOUDY    46  37  71 NE25G35   29.98R
OMAHA EPPLEY   CLOUDY    46  36  68 NE25G35   29.99F
BEATRICE       LGT RAIN  43  42  95 N21G33    29.95R
FALLS CITY     CLOUDY    46  43  89 NE18G28   29.85R
NEBRASKA CITY  CLOUDY    42  42  99 NE21G32   29.92R
PLATTSMOUTH    CLOUDY    43  37  78 N24G33    29.94R
$$

NEZ044-045-051>053-067-292200-
OMAHA AREA

CITY           SKY/WX    TMP DP  RH WIND       PRES   REMARKS
OMAHA EPPLEY   CLOUDY    46  36  68 NE25G35   29.99F
BLAIR          CLOUDY    45  37  72 NE18G30   29.99R
FREMONT        CLOUDY    47  35  63 NE17G29   30.01R
MILLARD        CLOUDY    47  38  71 NE12G21   29.99R
OFFUTT AFB     CLOUDY    44  38  77 N18G30    29.96R
PLATTSMOUTH    CLOUDY    43  37  78 N24G33    29.94R
WAHOO          CLOUDY    45  36  69 NE25G33   30.00R
$$




USA.gov is the U.S. government's official web portal to all federal, state and local government web resources and services.